Location: Brahman Valley
(40.6513°N, 111.8855°W)
Time: 22:20:33
(UTC+00:00)

Vanguard 2 - Pass Details

Date: 16 May 2021
Orbit: 552 x 2937 km, 32.9° (Epoch: 14 June)

Event Time Altitude Azimuth Distance (km) Brightness Sun altitude
Rises 17:06:29 0° 276° (W) 5,504 11.6 53.7°
Reaches altitude 10° 17:09:56 10° 270° (W) 4,784 11.4 54.3°
Maximum altitude 17:23:13 44° 205° (SSW) 3,510 11.5 56.5°
Drops below altitude 10° 17:39:21 10° 142° (SE) 5,725 12.6 59.1°
Sets 17:44:00 0° 136° (SE) 6,638 12.7 59.8°
